DW0805 Ramloese DK current weather conditions

sailwx.info

Wind from 170 at 12 knots gusting 15

Air temperature 13.9° C
Dewpoint 10.3° C

Last reported at 2014-Aug-22 18:55 UTC.
Time now 2014-Aug-22 19:41 UTC

Location: N 56°01' E 012°05'.
View on Google Maps.

See reports from other nearby stations

  
Tides and Currents Weather Stations Pressure Air Temp Water Temp Dewpoint Dewpoint Depression Visibility Wind Speed Wind Dir Waves Ship Positions
date/time (UTC)wind fromknots sea level pressurealtimeterstation pressurevisibilityair tempwater tempwave heightnotes
2014-Aug-22 18:55 170 12 gusting 15 13.9
2014-Aug-22 18:45 153 12 gusting 17 14.4
2014-Aug-22 18:35 168 11 gusting 14 13.9
2014-Aug-22 18:25 173 11 gusting 13 13.9
2014-Aug-22 18:15 184 6 gusting 13 13.9
2014-Aug-22 18:05 245 7 gusting 14 13.9
2014-Aug-22 17:55 200 8 gusting 13 13.9
2014-Aug-22 17:45 283 6 gusting 14 13.9
2014-Aug-22 17:35 191 12 gusting 15 14.4
2014-Aug-22 17:25 283 10 gusting 14 14.4
2014-Aug-22 17:15 170 10 gusting 14 14.4
2014-Aug-22 17:05 155 10 gusting 13 13.9
2014-Aug-22 16:55 171 10 gusting 14 14.4
2014-Aug-22 16:45 163 14.4
2014-Aug-22 16:35 188 13 gusting 13 15.6
2014-Aug-22 16:25 188 13 gusting 13 15.6
2014-Aug-22 16:15 188 13 gusting 13 15.6
2014-Aug-22 16:05 188 13 gusting 13 15.6
2014-Aug-22 15:55 188 13 gusting 13 15.6
2014-Aug-22 15:45 188 13 gusting 13 15.6
2014-Aug-22 15:35 188 13 gusting 13 15.6
2014-Aug-22 15:25 188 13 gusting 13 15.6
2014-Aug-22 15:15 188 13 gusting 13 15.6
2014-Aug-22 15:05 188 13 gusting 13 15.6
2014-Aug-22 14:55 188 13 gusting 13 15.6
2014-Aug-22 14:45 188 13 gusting 13 15.6
2014-Aug-22 14:35 188 13 gusting 13 15.6
2014-Aug-22 14:25 188 13 gusting 13 15.6
2014-Aug-22 14:15 188 13 gusting 17 15.6
2014-Aug-22 14:05 169 11 gusting 15 15.6
2014-Aug-22 13:55 160 12 gusting 18 15.6
2014-Aug-22 13:45 181 12 gusting 18 15.0
2014-Aug-22 13:35 183 11 gusting 18 15.0
2014-Aug-22 13:25 163 12 gusting 18 15.6
2014-Aug-22 13:15 173 12 gusting 19 15.6
2014-Aug-22 13:05 169 11 gusting 18 16.1
2014-Aug-22 12:55 183 11 gusting 14 16.7
2014-Aug-22 12:45 187 6 gusting 12 16.1
2014-Aug-22 12:35 178 6 gusting 10 15.6
2014-Aug-22 12:25 165 16.1
2014-Aug-22 12:15 181 16.1
2014-Aug-22 12:05 167 11 gusting 15 16.1
2014-Aug-22 11:55 165 13 gusting 21 16.1
2014-Aug-22 11:45 147 13 gusting 18 16.7
2014-Aug-22 11:35 158 13 gusting 19 17.2
2014-Aug-22 11:25 162 12 gusting 17 17.8
2014-Aug-22 11:15 149 8 gusting 14 18.3
2014-Aug-22 11:05 166 11 gusting 15 17.2
2014-Aug-22 10:55 161 12 gusting 17 17.2
2014-Aug-22 10:45 165 11 gusting 18 17.2
2014-Aug-22 10:35 170 13 gusting 15 16.7
2014-Aug-22 10:25 171 11 gusting 18 16.1
2014-Aug-22 10:15 167 14 gusting 18 16.1
2014-Aug-22 10:05 170 13 gusting 15 16.1
2014-Aug-22 09:55 167 13 gusting 17 15.6
2014-Aug-22 09:45 173 13 gusting 19 15.6
2014-Aug-22 09:35 167 12 gusting 21 15.6
2014-Aug-22 09:25 165 13 gusting 18 16.1
2014-Aug-22 09:15 164 10 gusting 15 16.1
2014-Aug-22 09:05 155 10 gusting 15 16.1
2014-Aug-22 08:55 168 14 gusting 19 16.1
2014-Aug-22 08:45 166 11 gusting 18 16.1
2014-Aug-22 08:35 153 7 gusting 15 16.1
2014-Aug-22 08:25 160 7 gusting 15 16.1
2014-Aug-22 08:15 160 12 gusting 17 15.6
2014-Aug-22 08:05 159 13 gusting 15 15.6
2014-Aug-22 07:55 164 8 gusting 17 15.6
2014-Aug-22 07:45 149 10 gusting 15 15.6
2014-Aug-22 07:35 158 6 gusting 14 15.6
2014-Aug-22 07:25 162 5 gusting 14 15.0
2014-Aug-22 07:15 161 7 gusting 14 14.4
2014-Aug-22 07:05 167 6 gusting 12 14.4
2014-Aug-22 06:55 160 5 gusting 10 14.4
2014-Aug-22 06:45 156 6 gusting 12 14.4
2014-Aug-22 06:35 144 5 gusting 11 13.9
2014-Aug-22 06:25 174 5 gusting 11 13.9
2014-Aug-22 06:15 174 6 gusting 10 13.9
2014-Aug-22 06:05 176 6 gusting 11 13.9
2014-Aug-22 05:55 153 8 gusting 13 13.3
2014-Aug-22 05:45 165 6 gusting 13 13.3
2014-Aug-22 05:35 160 10 gusting 13 12.8
2014-Aug-22 05:25 173 5 gusting 11 12.8
2014-Aug-22 05:15 179 7 gusting 12 12.8
2014-Aug-22 05:05 174 5 gusting 13 12.8
2014-Aug-22 04:55 159 7 gusting 13 12.8
2014-Aug-22 04:45 167 9 gusting 15 12.8
2014-Aug-22 04:35 155 10 gusting 14 12.2
2014-Aug-22 04:25 167 11 gusting 14 12.2
2014-Aug-22 04:15 162 10 gusting 14 12.2
2014-Aug-22 04:05 163 11 gusting 14 12.2
2014-Aug-22 03:55 164 10 gusting 15 12.2
2014-Aug-22 03:45 164 12 gusting 14 12.2
2014-Aug-22 03:35 160 10 gusting 13 12.2
2014-Aug-22 03:25 158 8 gusting 13 12.2
2014-Aug-22 03:15 158 8 gusting 13 12.2
2014-Aug-22 03:05 171 8 gusting 14 12.2
2014-Aug-22 02:55 167 8 gusting 14 12.2
2014-Aug-22 02:45 168 9 gusting 13 12.2
2014-Aug-22 02:35 162 9 gusting 13 12.2
2014-Aug-22 02:25 170 8 gusting 15 12.2
2014-Aug-22 02:15 161 8 gusting 13 12.2
2014-Aug-22 02:05 167 8 gusting 13 12.2
2014-Aug-22 01:55 161 8 gusting 13 12.2
2014-Aug-22 01:45 166 8 gusting 13 12.2
2014-Aug-22 01:35 170 8 gusting 13 12.8
2014-Aug-22 01:25 164 9 gusting 14 12.8
2014-Aug-22 01:15 159 10 gusting 13 12.8
2014-Aug-22 01:05 164 10 gusting 14 12.8
2014-Aug-22 00:55 164 10 gusting 14 12.2
2014-Aug-22 00:45 168 8 gusting 13 12.2
2014-Aug-22 00:35 165 8 gusting 12 12.2
2014-Aug-22 00:25 157 8 gusting 13 12.2
2014-Aug-22 00:15 170 12 gusting 14 12.8
2014-Aug-22 00:05 164 10 gusting 13 12.8
2014-Aug-21 23:55 172 10 gusting 14 12.8
2014-Aug-21 23:45 175 10 gusting 15 12.8
2014-Aug-21 23:35 164 10 gusting 13 13.3
2014-Aug-21 23:25 167 10 gusting 15 13.3
2014-Aug-21 23:15 163 12 gusting 15 13.3
2014-Aug-21 23:05 172 9 gusting 13 13.3
2014-Aug-21 22:55 191 7 gusting 13 13.3
2014-Aug-21 22:45 192 10 gusting 14 13.3
2014-Aug-21 22:35 184 8 gusting 15 13.3
2014-Aug-21 22:25 186 8 gusting 14 13.3
2014-Aug-21 22:15 192 7 gusting 13 13.3
2014-Aug-21 22:05 199 7 gusting 14 13.3
2014-Aug-21 21:55 210 7 gusting 13 13.3
2014-Aug-21 21:45 198 10 gusting 13 13.3
2014-Aug-21 21:35 196 6 gusting 12 13.3
2014-Aug-21 21:25 195 6 gusting 15 13.3
2014-Aug-21 21:15 192 7 gusting 13 13.3
2014-Aug-21 21:05 199 8 gusting 13 13.3
2014-Aug-21 20:55 196 9 gusting 12 13.3
2014-Aug-21 20:45 197 6 gusting 15 13.3
2014-Aug-21 20:35 193 6 gusting 10 13.3
2014-Aug-21 20:25 189 6 gusting 12 13.3
2014-Aug-21 20:15 196 7 gusting 11 13.3
2014-Aug-21 20:05 196 6 gusting 11 13.3
2014-Aug-21 19:55 204 7 gusting 15 13.3
2014-Aug-21 19:45 212 7 gusting 14 13.3
2014-Aug-21 19:35 223 6 gusting 13 13.3
2014-Aug-21 19:25 197 5 gusting 12 13.3
2014-Aug-21 19:15 207 5 gusting 12 13.3
2014-Aug-21 19:05 200 6 gusting 10 13.9
2014-Aug-21 18:55 201 5 gusting 11 13.9
2014-Aug-21 18:45 204 5 gusting 12 13.9
2014-Aug-21 18:35 211 6 gusting 13 13.9
2014-Aug-21 18:25 202 8 gusting 14 14.4
2014-Aug-21 18:15 206 6 gusting 14 14.4
2014-Aug-21 18:05 204 6 gusting 13 14.4
2014-Aug-21 17:55 201 5 gusting 12 14.4
2014-Aug-21 17:45 204 4 gusting 10 14.4
2014-Aug-21 17:35 194 6 gusting 12 14.4
2014-Aug-21 17:25 196 11 gusting 15 15.0
2014-Aug-21 17:15 207 6 gusting 12 15.0
2014-Aug-21 17:05 209 6 gusting 12 15.0
2014-Aug-21 16:55 253 6 gusting 12 15.6
2014-Aug-21 16:45 216 5 gusting 12 15.6
2014-Aug-21 16:35 215 7 gusting 15 16.1
2014-Aug-21 16:25 222 8 gusting 13 16.7
2014-Aug-21 16:15 212 7 gusting 13 16.7
2014-Aug-21 16:05 199 6 gusting 13 16.1
2014-Aug-21 15:55 216 6 gusting 13 16.1
2014-Aug-21 15:45 209 7 gusting 18 16.1
2014-Aug-21 15:35 182 10 gusting 14 15.6
2014-Aug-21 15:25 197 12 gusting 15 16.1
2014-Aug-21 15:15 188 8 gusting 13 17.2
2014-Aug-21 15:05 189 11 gusting 19 17.2
2014-Aug-21 14:55 199 12 gusting 17 17.2
2014-Aug-21 14:45 215 8 gusting 15 17.2
2014-Aug-21 14:35 230 6 gusting 15 17.8
2014-Aug-21 14:25 217 9 gusting 17 17.2
2014-Aug-21 14:15 233 8 gusting 15 17.8
2014-Aug-21 14:05 232 13 gusting 18 17.8
2014-Aug-21 13:55 210 7 gusting 13 17.8
2014-Aug-21 13:45 213 8 gusting 18 17.2
2014-Aug-21 13:35 211 8 gusting 18 17.2
2014-Aug-21 13:25 203 8 gusting 14 17.8
2014-Aug-21 13:15 198 10 gusting 15 17.8
2014-Aug-21 13:05 215 8 gusting 15 17.2
2014-Aug-21 12:55 214 12 gusting 17 16.7
2014-Aug-21 12:45 243 12 gusting 17 17.2
2014-Aug-21 12:35 194 10 gusting 15 17.8
2014-Aug-21 12:25 204 7 gusting 15 17.2
2014-Aug-21 12:15 216 7 gusting 15 17.8
2014-Aug-21 12:05 208 8 gusting 15 17.8
2014-Aug-21 11:55 214 9 gusting 18 17.8
2014-Aug-21 11:45 197 7 gusting 14 17.8
2014-Aug-21 11:35 243 10 gusting 15 17.2
2014-Aug-21 11:25 214 10 gusting 19 17.2
2014-Aug-21 11:15 228 10 gusting 17 16.7
2014-Aug-21 11:05 216 8 gusting 15 16.7
2014-Aug-21 10:55 217 8 gusting 15 15.6
2014-Aug-21 10:45 254 11 gusting 17 15.6
2014-Aug-21 10:35 237 8 gusting 15 15.6
2014-Aug-21 10:25 229 6 gusting 14 16.1
2014-Aug-21 10:15 213 7 gusting 15 15.0
2014-Aug-21 10:05 220 5 gusting 13 15.6
2014-Aug-21 09:55 234 7 gusting 13 15.0
2014-Aug-21 09:45 230 6 gusting 15 15.0
2014-Aug-21 09:35 237 7 gusting 14 15.6
2014-Aug-21 09:25 239 8 gusting 13 15.0
2014-Aug-21 09:15 219 5 gusting 13 14.4
2014-Aug-21 09:05 218 5 gusting 13 14.4
2014-Aug-21 08:55 229 7 gusting 13 14.4
2014-Aug-21 08:45 203 10 gusting 15 15.0
2014-Aug-21 08:35 202 10 gusting 15 15.6
2014-Aug-21 08:25 242 10 gusting 15 15.0
2014-Aug-21 08:15 225 7 gusting 15 15.0
2014-Aug-21 08:05 214 11 gusting 15 15.0
2014-Aug-21 07:55 201 10 gusting 15 15.0
2014-Aug-21 07:45 219 11 gusting 15 15.0
2014-Aug-21 07:35 196 10 gusting 17 14.4
2014-Aug-21 07:25 205 7 gusting 14 14.4
2014-Aug-21 07:15 203 6 gusting 13 14.4
2014-Aug-21 07:05 191 10 gusting 14 14.4
2014-Aug-21 06:55 247 8 gusting 13 13.9
2014-Aug-21 06:45 176 10 gusting 13 13.3
2014-Aug-21 06:35 247 11 gusting 15 13.3
2014-Aug-21 06:25 189 10 gusting 15 13.3
2014-Aug-21 06:15 192 7 gusting 15 13.9
2014-Aug-21 06:05 193 7 gusting 13 13.3
2014-Aug-21 05:55 237 7 gusting 13 13.3
2014-Aug-21 05:45 197 7 gusting 13 13.3
2014-Aug-21 05:35 195 8 gusting 13 12.8
2014-Aug-21 05:25 234 8 gusting 13 12.8
2014-Aug-21 05:15 195 7 gusting 13 12.8
2014-Aug-21 05:05 228 8 gusting 13 12.2
2014-Aug-21 04:55 188 6 gusting 12 12.2
2014-Aug-21 04:45 204 7 gusting 12 12.2
2014-Aug-21 04:35 205 6 gusting 13 11.7
2014-Aug-21 04:25 202 7 gusting 13 11.7
2014-Aug-21 04:15 243 7 gusting 13 11.7
2014-Aug-21 04:05 194 10 gusting 13 11.7
2014-Aug-21 03:55 193 8 gusting 13 11.7
2014-Aug-21 03:45 202 7 gusting 13 11.7
2014-Aug-21 03:35 193 7 gusting 13 11.7
2014-Aug-21 03:25 202 7 gusting 13 11.7
2014-Aug-21 03:15 192 7 gusting 12 11.7
2014-Aug-21 03:05 196 8 gusting 12 12.2
2014-Aug-21 02:55 178 6 gusting 10 11.7
2014-Aug-21 02:45 197 6 gusting 11 11.7
2014-Aug-21 02:35 196 7 gusting 11 11.7
2014-Aug-21 02:25 190 6 gusting 12 12.2
2014-Aug-21 02:15 182 6 gusting 13 12.2
2014-Aug-21 02:05 194 5 gusting 10 12.2
2014-Aug-21 01:55 196 7 gusting 13 12.2
2014-Aug-21 01:45 191 6 gusting 13 12.2
2014-Aug-21 01:35 193 6 gusting 10 12.2
2014-Aug-21 01:25 194 6 gusting 11 12.2
2014-Aug-21 01:15 191 6 gusting 11 12.2
2014-Aug-21 01:05 203 6 gusting 14 12.8
2014-Aug-21 00:55 202 7 gusting 13 12.2
2014-Aug-21 00:45 204 6 gusting 11 12.2
2014-Aug-21 00:35 204 6 gusting 13 12.8
2014-Aug-21 00:25 208 7 gusting 15 12.8
2014-Aug-21 00:15 206 6 gusting 13 12.8
2014-Aug-21 00:05 210 8 gusting 13 12.8
2014-Aug-20 23:55 200 7 gusting 13 12.8
2014-Aug-20 23:45 203 7 gusting 14 12.8
2014-Aug-20 23:35 206 7 gusting 12 12.8
2014-Aug-20 23:25 197 6 gusting 12 12.8
2014-Aug-20 23:15 197 9 gusting 14 12.8
2014-Aug-20 23:05 201 6 gusting 13 12.8
2014-Aug-20 22:55 204 7 gusting 14 12.8
2014-Aug-20 22:45 200 6 gusting 13 12.8
2014-Aug-20 22:35 212 6 gusting 13 12.8
2014-Aug-20 22:25 210 6 gusting 13 12.8
2014-Aug-20 22:15 208 9 gusting 13 12.8
2014-Aug-20 22:05 203 7 gusting 13 12.8
2014-Aug-20 21:55 209 7 gusting 13 12.8
2014-Aug-20 21:45 200 6 gusting 13 13.3
2014-Aug-20 21:35 212 6 gusting 13 13.3
2014-Aug-20 21:25 201 6 gusting 12 13.3
2014-Aug-20 21:15 200 5 gusting 13 13.3
2014-Aug-20 21:05 208 6 gusting 12 13.3
2014-Aug-20 20:55 209 7 gusting 15 13.3
2014-Aug-20 20:45 208 6 gusting 14 13.3
2014-Aug-20 20:35 206 10 gusting 18 13.3
2014-Aug-20 20:25 206 7 gusting 15 13.9
2014-Aug-20 20:15 195 6 gusting 13 13.9
2014-Aug-20 20:05 210 11 gusting 17 13.9
2014-Aug-20 19:55 202 7 gusting 14 13.9
2014-Aug-20 19:45 204 10 gusting 14 13.9
2014-Aug-20 19:35 203 6 gusting 15 13.9
2014-Aug-20 19:25 204 8 gusting 15 13.9
2014-Aug-20 19:15 208 7 gusting 15 13.9
2014-Aug-20 19:05 211 11 gusting 15 13.9